Weather History for Hot Springs, AR

Change the Weather History Date:

Thursday, November 8, 2012

  Actual Average Record
Temperature  
Mean Temperature 50 °F -  
Max Temperature 63 °F 64 °F 83 °F (1975)
Min Temperature 37 °F 42 °F 18 °F (1991)
Degree Days  
Heating Degree Days 15    
Moisture  
Dew Point 38 °F    
Average Humidity 61    
Maximum Humidity 89    
Minimum Humidity 39    
Precipitation  
Precipitation 0.00 in - - ()
Sea Level Pressure  
Sea Level Pressure 30.18 in    
Wind  
Wind Speed 4 mph (SE)    
Max Wind Speed 10 mph    
Max Gust Speed -    
Visibility 10 miles    
Events      
Averages and records for this station are not official NWS values.
T = Trace of Precipitation, MM = Missing Value Source: NWS Daily Summary

Daily Weather History Graph

Daily Weather History Graph

Search for Another Location

Airport:

Trip Planner

Search our weather history database for the weather conditions in past years. The results will help you decide how hot, cold, wet, or windy it might be!

Date:

Astronomy

Nov. 08, 2012 Rise Set
Actual Time 6:39 AM CST 5:12 PM CST
Civil Twilight 6:13 AM CST 5:38 PM CST
Nautical Twilight 5:43 AM CST 6:08 PM CST
Astronomical Twilight 5:13 AM CST 6:38 PM CST
Moon 12:50 AM CST (11/8) 1:40 PM CST (11/8)
Length of Visible Light 11h 25m
Length of Day
10h 32m
Waning Crescent, 32% of the Moon is Illuminated
Nov 8
Waning Crescent
Nov 13
New
Nov 20
First Quarter
Nov 28
Full
Dec 6
Last Quarter

Hourly Weather History & Observations

Time (CST) Temp. Windchill Dew Point Humidity Pressure Visibility Wind Dir Wind Speed Gust Speed Precip Events Conditions
12:53 AM 45.0 °F 42.6 °F 35.1 °F 68% 30.18 in 10.0 mi East 4.6 mph - N/A   Clear
1:53 AM 43.0 °F - 35.1 °F 74% 30.19 in 10.0 mi Calm Calm - N/A   Clear
2:53 AM 41.0 °F - 36.0 °F 82% 30.20 in 10.0 mi Calm Calm - N/A   Clear
3:53 AM 39.0 °F - 36.0 °F 89% 30.21 in 10.0 mi Calm Calm - N/A   Clear
4:53 AM 37.9 °F - 35.1 °F 89% 30.22 in 10.0 mi Calm Calm - N/A   Clear
5:53 AM 37.9 °F - 35.1 °F 89% 30.22 in 10.0 mi Calm Calm - N/A   Clear
6:53 AM 39.0 °F - 35.1 °F 86% 30.24 in 10.0 mi Calm Calm - N/A   Clear
7:53 AM 46.0 °F 44.8 °F 37.9 °F 73% 30.26 in 10.0 mi East 3.5 mph - N/A   Clear
8:53 AM 48.9 °F - 36.0 °F 61% 30.26 in 10.0 mi East 3.5 mph - N/A   Clear
9:53 AM 53.1 °F - 36.0 °F 52% 30.26 in 10.0 mi South 6.9 mph - N/A   Clear
10:53 AM 55.9 °F - 35.1 °F 45% 30.24 in 10.0 mi South 6.9 mph - N/A   Clear
11:53 AM 59.0 °F - 36.0 °F 42% 30.22 in 10.0 mi SSE 8.1 mph - N/A   Clear
12:53 PM 61.0 °F - 37.0 °F 41% 30.17 in 10.0 mi South 9.2 mph - N/A   Clear
1:53 PM 62.1 °F - 37.0 °F 39% 30.14 in 10.0 mi South 8.1 mph - N/A   Clear
2:53 PM 63.0 °F - 37.9 °F 40% 30.13 in 10.0 mi SSE 9.2 mph - N/A   Clear
3:53 PM 63.0 °F - 37.9 °F 40% 30.12 in 10.0 mi SSE 10.4 mph - N/A   Clear
4:53 PM 61.0 °F - 39.9 °F 46% 30.12 in 10.0 mi SSE 6.9 mph - N/A   Clear
5:53 PM 59.0 °F - 41.0 °F 51% 30.12 in 10.0 mi ESE 3.5 mph - N/A   Clear
6:53 PM 57.0 °F - 41.0 °F 55% 30.12 in 10.0 mi ESE 5.8 mph - N/A   Clear
7:53 PM 55.9 °F - 41.0 °F 57% 30.13 in 10.0 mi ESE 4.6 mph - N/A   Clear
8:53 PM 57.0 °F - 41.0 °F 55% 30.13 in 10.0 mi SSE 3.5 mph - N/A   Clear
9:53 PM 55.0 °F - 41.0 °F 59% 30.12 in 10.0 mi SSE 4.6 mph - N/A   Clear
10:53 PM 54.0 °F - 41.0 °F 62% 30.12 in 10.0 mi SE 3.5 mph - N/A   Clear
11:53 PM 54.0 °F - 41.0 °F 62% 30.12 in 10.0 mi Calm Calm - N/A   Clear